Weather History for Fort Smith, AR

Change the Weather History Date:

Friday, October 18, 2013

  Actual Average Record
Temperature  
Mean Temperature 54 °F 62 °F  
Max Temperature 64 °F 74 °F 92 °F (2005)
Min Temperature 44 °F 50 °F 26 °F (1948)
Degree Days  
Heating Degree Days 11 5  
Month to date heating degree days 44 55  
Since 1 July heating degree days 44 72  
Cooling Degree Days 0 2  
Month to date cooling degree days 81 52  
Year to date cooling degree days 2303 2030  
Growing Degree Days 4 (Base 50)    
Moisture  
Dew Point 49 °F    
Average Humidity 82    
Maximum Humidity 100    
Minimum Humidity 63    
Precipitation  
Precipitation 0.13 in 0.15 in 1.63 in (1885)
Month to date precipitation 3.23 2.44  
Year to date precipitation 39.60 35.85  
Sea Level Pressure  
Sea Level Pressure 30.03 in    
Wind  
Wind Speed 3 mph (NNE)    
Max Wind Speed 17 mph    
Max Gust Speed 23 mph    
Visibility 7 miles    
Events Fog , Rain    
T = Trace of Precipitation, MM = Missing Value Source: NWS Daily Summary

Daily Weather History Graph

Daily Weather History Graph

Search for Another Location

Airport:

Trip Planner

Search our weather history database for the weather conditions in past years. The results will help you decide how hot, cold, wet, or windy it might be!

Date:

Astronomy

Oct. 18, 2013 Rise Set
Actual Time 7:26 AM CDT 6:38 PM CDT
Civil Twilight 7:00 AM CDT 7:03 PM CDT
Nautical Twilight 6:31 AM CDT 7:33 PM CDT
Astronomical Twilight 6:01 AM CDT 8:02 PM CDT
Moon 6:29 PM CDT (10/18) 7:02 AM CDT (10/18)
Length of Visible Light 12h 03m
Length of Day
11h 11m
Full, 100% of the Moon is Illuminated
Oct 18
Full
Oct 18
Full
Oct 26
Last Quarter
Nov 3
New
Nov 9
First Quarter

Hourly Weather History & Observations

Time (CDT) Temp. Windchill Dew Point Humidity Pressure Visibility Wind Dir Wind Speed Gust Speed Precip Events Conditions
12:53 AM 50.0 °F - 46.0 °F 86% 30.03 in 10.0 mi Calm Calm - N/A   Clear
1:53 AM 50.0 °F - 48.0 °F 93% 30.03 in 10.0 mi Calm Calm - N/A   Clear
2:53 AM 48.9 °F - 46.9 °F 93% 30.03 in 10.0 mi ENE 3.5 mph - N/A   Clear
3:53 AM 48.9 °F - 46.0 °F 90% 30.03 in 10.0 mi Calm Calm - N/A   Clear
4:53 AM 45.0 °F - 43.0 °F 93% 30.03 in 10.0 mi Calm Calm - N/A   Clear
5:53 AM 46.9 °F - 44.1 °F 90% 30.04 in 10.0 mi Calm Calm - N/A   Clear
6:53 AM 44.1 °F - 43.0 °F 96% 30.05 in 6.0 mi Calm Calm - N/A   Scattered Clouds
6:59 AM 44.6 °F - 42.8 °F 93% 30.05 in 2.0 mi Calm Calm - N/A Fog Shallow Fog
7:07 AM 46.4 °F - 44.6 °F 93% 30.05 in 2.0 mi Calm Calm - N/A Fog Shallow Fog
7:18 AM 46.4 °F - 44.6 °F 93% 30.05 in 0.2 mi Calm Calm - N/A Fog Shallow Fog
7:37 AM 46.4 °F 45.2 °F 46.4 °F 100% 30.05 in 0.2 mi East 3.5 mph - N/A Fog Shallow Fog
7:53 AM 46.9 °F - 46.0 °F 97% 30.04 in 0.2 mi East 4.6 mph - N/A Fog Shallow Fog
8:00 AM 46.4 °F 43.5 °F 46.4 °F 100% 30.05 in 0.2 mi ENE 5.8 mph - N/A Fog Shallow Fog
8:19 AM 48.2 °F - 46.4 °F 93% 30.05 in 0.2 mi NE 8.1 mph - N/A Fog Shallow Fog
8:27 AM 48.2 °F - 46.4 °F 93% 30.05 in 1.0 mi NE 8.1 mph - N/A Fog Shallow Fog
8:30 AM 48.2 °F - 46.4 °F 93% 30.05 in 3.0 mi NE 6.9 mph - N/A Fog Shallow Fog
8:53 AM 48.0 °F - 46.9 °F 96% 30.06 in 1.0 mi East 4.6 mph - N/A Fog Shallow Fog
9:30 AM 50.0 °F - 48.2 °F 94% 30.06 in 3.0 mi ENE 6.9 mph - N/A Fog Shallow Fog
9:50 AM 50.0 °F - 48.2 °F 94% 30.05 in 1.8 mi ENE 8.1 mph - N/A   Overcast
9:51 AM 50.0 °F - 48.9 °F 96% 30.05 in 1.8 mi ENE 8.1 mph - N/A   Overcast
10:00 AM 51.8 °F - 50.0 °F 94% 30.06 in 3.0 mi East 4.6 mph - N/A   Overcast
10:20 AM 53.6 °F - 51.8 °F 94% 30.05 in 9.0 mi East 5.8 mph - N/A   Scattered Clouds
10:53 AM 59.0 °F - 51.1 °F 75% 30.04 in 10.0 mi Calm Calm - N/A   Clear
11:53 AM 62.1 °F - 52.0 °F 70% 30.04 in 10.0 mi Calm Calm - N/A   Clear
12:53 PM 64.0 °F - 52.0 °F 65% 30.01 in 10.0 mi Calm Calm - N/A   Overcast
1:53 PM 64.0 °F - 53.1 °F 67% 29.98 in 10.0 mi NNW 4.6 mph - 0.00 in Rain Light Rain
2:53 PM 60.1 °F - 54.0 °F 80% 30.00 in 10.0 mi WNW 4.6 mph - 0.02 in Rain Light Rain
3:53 PM 59.0 °F - 55.0 °F 87% 29.99 in 10.0 mi Calm Calm - 0.04 in Rain Light Rain
4:53 PM 60.1 °F - 54.0 °F 80% 29.97 in 10.0 mi NNE 6.9 mph - 0.00 in   Overcast
5:53 PM 59.0 °F - 54.0 °F 83% 29.99 in 6.0 mi Calm Calm - 0.01 in Rain Rain
6:53 PM 57.9 °F - 55.9 °F 93% 29.99 in 10.0 mi Calm Calm - 0.02 in Rain Light Rain
7:53 PM 57.9 °F - 54.0 °F 87% 30.01 in 10.0 mi NNW 5.8 mph - 0.00 in   Overcast
8:53 PM 57.0 °F - 53.1 °F 87% 30.02 in 10.0 mi NNW 8.1 mph - 0.00 in Rain Light Rain
9:53 PM 57.0 °F - 53.1 °F 87% 30.03 in 10.0 mi Calm Calm - 0.02 in   Overcast
10:42 PM 55.4 °F - 51.8 °F 88% 30.04 in 10.0 mi NW 8.1 mph - N/A   Overcast
10:53 PM 55.0 °F - 51.1 °F 86% 30.04 in 10.0 mi WNW 5.8 mph - N/A   Overcast
11:05 PM 53.6 °F - 51.8 °F 94% 30.04 in 10.0 mi West 11.5 mph - 0.00 in Rain Light Rain
11:17 PM 53.6 °F - 51.8 °F 94% 30.05 in 8.0 mi West 13.8 mph - 0.00 in Rain Light Rain
11:24 PM 53.6 °F - 51.8 °F 94% 30.05 in 6.0 mi West 15.0 mph - 0.00 in Rain Light Rain
11:53 PM 52.0 °F - 48.9 °F 89% 30.05 in 10.0 mi NW 9.2 mph 17.3 mph 0.01 in   Overcast
11:58 PM 51.8 °F - 48.2 °F 88% 30.04 in 9.0 mi NW 9.2 mph - 0.00 in Rain Light Rain